User: anonymous
Location: Arrakis Observatory
(44.1122°N, 95.7153°W)
Time: 10:34:23
(UTC-05:00)
Language:

SL-8 R/B - Orbit

View from above orbital plane
View from above orbital plane
View from above satellite
View from above satellite

Ground track
Ground track

The orbit data is extracted from the following two-line orbital elements,

1 32751U 08014B   14259.73994116  .00110290  00000-0  74303-3 0  9490
2 32751 098.1427 226.5492 0011352 162.0050 274.3521 15.74716241362088
Epoch (UTC): 16 September 2014 17:45:30
Eccentricity: 0.0011352
inclination: 98.1427°
perigee height: 338 km
apogee height: 353 km
right ascension of ascending node: 226.5492°
argument of perigee: 162.0050°
revolutions per day: 15.74716241
mean anomaly at epoch: 274.3521°
orbit number at epoch: 36208

The dashed part of the orbit path shows where the satellite is in the earth's shadow,  

DLR